Home   Weather   Hamilton   Past weeks

Flag for Canada Past Weather in Hamilton, Ontario, Canada — Yesterday and Last 2 Weeks

Now
36 °F

Overcast.


Feels Like: 33 °F
Forecast: 32 / 41 °F
Wind: 3 mph from West

Location: Hamilton Airport

Current Time: Dec 6, 2016 at 1:03:09 am

Latest Report: Dec 6, 2016 at 12:00 am


Visibility: 15 mi

Pressure: 30.11 "Hg

Humidity: 81%

Dew Point: 30 °F

Location of HamiltonLocation

Past Weather in Hamilton — Graph

°F

Hamilton Temperature Yesterday

Maximum temperature yesterday: 41 °F (at 1:00 pm)
Minimum temperature yesterday: 32 °F (at 1:00 am)
Average temperature yesterday: 36 °F

High & Low Weather Summary for the Past Weeks

 TemperatureHumidityPressure
High55 °F (Nov 29, 1:00 pm)100% (Nov 23, 9:00 pm)30.39 "Hg (Nov 23, 9:00 pm)
Low19 °F (Nov 23, 7:00 am)51% (Nov 21, 12:00 pm)29.47 "Hg (Nov 30, 9:00 pm)
Average38 °F84%30.02 "Hg
* Reported Nov 21 12:00 am — Dec 6 12:00 am, Hamilton, Weather by CustomWeather, © 2016

Note: Actual official high and low records may vary slightly from our data, if they occured in-between our weather recording intervals... More about our weather records

Advertising

Hamilton Weather History for the Previous 24 Hours

Scroll right to see more
 ConditionsComfort  
Time TempWeatherWind HumidityBarometerVisibility
12:00 am
Tue, Dec 6
36 °FOvercast.3 mph81%30.11 "Hg15 mi
11:00 pm
Mon, Dec 5
37 °FOvercast.5 mph81%30.11 "Hg15 mi
10:00 pm37 °FPassing clouds.5 mph81%30.11 "Hg15 mi
9:00 pm37 °FPassing clouds.8 mph75%30.10 "Hg15 mi
8:00 pm37 °FPassing clouds.8 mph75%30.10 "Hg15 mi
7:00 pm37 °FOvercast.8 mph75%30.09 "Hg15 mi
6:00 pm39 °FPassing clouds.8 mph70%30.08 "Hg15 mi
5:00 pm39 °FPassing clouds.9 mph70%30.06 "Hg15 mi
4:00 pm39 °FPartly sunny.13 mph70%30.03 "Hg15 mi
3:00 pm39 °FPartly sunny.17 mph70%30.01 "Hg15 mi
2:00 pm41 °FMostly cloudy.17 mph70%29.99 "Hg15 mi
1:00 pm41 °FBroken clouds.17 mph70%29.97 "Hg15 mi
12:00 pm39 °FScattered clouds.17 mph75%29.96 "Hg15 mi
11:00 am37 °FPartly sunny.17 mph87%29.97 "Hg15 mi
10:00 am36 °FMore clouds than sun.20 mph87%29.97 "Hg15 mi
9:00 am36 °FMostly cloudy.14 mph87%29.93 "Hg15 mi
8:00 am34 °FPartly sunny.17 mph93%29.90 "Hg15 mi
7:00 am34 °FMostly cloudy.16 mph93%29.88 "Hg15 mi
6:00 am32 °FLight snow. Mostly cloudy.13 mph100%29.85 "Hg8 mi
5:00 am32 °FLight snow. Low clouds.5 mph100%29.81 "Hg6 mi
4:00 am32 °FLight snow. Low clouds.2 mph100%29.80 "Hg2 mi
3:00 am32 °FLight snow. Low clouds.3 mph100%29.81 "Hg2 mi
2:00 am32 °FLight snow. Overcast.7 mph93%29.82 "Hg2 mi
1:00 am32 °FLight snow. Mostly cloudy.10 mph93%29.83 "Hg4 mi
Weather by CustomWeather, © 2016

See weather overviewHow to use our weather pages